Location: Adamstown South Public School
(32.9318°S, 151.7012°E)
Time: 14:53:58
(UTC+00:00)

Atlas 2A Centaur Rocket - Pass Details

Date: 07 June 2020
Orbit: 290 x 19414 km, 27.0° (Epoch: 04 July)

Event Time Altitude Azimuth Distance (km) Brightness Sun altitude
Rises 08:42:51 0° 284° (WNW) 1,993 6.2 -22.4°
Reaches altitude 10° 08:44:25 10° 301° (WNW) 1,315 4.8 -22.7°
Maximum altitude 08:46:36 26° 3° (N) 1,014 3.2 -23.1°
Enters shadow 08:46:44 26° 8° (N) 1,037 3.2 -23.2°
